• In Uzbekistan
  • List of Countries
  • For 7 days
  • Water Temperature
  • Satellite Maps
  • Weather Map
  • Weather Widgets
  • user-avatar
    Login

    Hourly Weather Mingachevir

    Today, 23 October, Tuesday

    Time Temperature Precipitation Wind Pressure Humidity
    00:00 +19°C° 0 mm 3 mps 754 mmHg 57%
    01:00 +19°C° 0 mm 3 mps 754 mmHg 57%
    02:00 +19°C° 0 mm 3 mps 754 mmHg 57%
    03:00 +19°C° 0 mm 3 mps 753 mmHg 60%
    04:00 +19°C° 0 mm 3 mps 753 mmHg 61%
    05:00 +18°C° 0 mm 2 mps 753 mmHg 62%
    06:00 +18°C° 0 mm 2 mps 753 mmHg 63%
    07:00 +19°C° 0 mm 2 mps 753 mmHg 58%
    08:00 +21°C° 0 mm 2 mps 753 mmHg 52%
    09:00 +22°C° 0 mm 3 mps 753 mmHg 47%
    10:00 +24°C° 0 mm 3 mps 753 mmHg 43%
    11:00 +25°C° 0 mm 3 mps 753 mmHg 40%
    12:00 +26°C° 0 mm 3 mps 753 mmHg 37%
    13:00 +27°C° 0 mm 3 mps 752 mmHg 36%
    14:00 +27°C° 0 mm 3 mps 752 mmHg 36%
    15:00 +27°C° 0 mm 2 mps 752 mmHg 35%
    16:00 +26°C° 0 mm 2 mps 752 mmHg 39%
    17:00 +24°C° 0 mm 1 mps 752 mmHg 43%
    18:00 +23°C° 0 mm 1 mps 752 mmHg 46%
    19:00 +22°C° 0 mm 1 mps 752 mmHg 47%
    20:00 +22°C° 0 mm 1 mps 752 mmHg 47%
    21:00 +21°C° 0 mm 1 mps 753 mmHg 47%
    22:00 +21°C° 0 mm 1 mps 752 mmHg 49%
    23:00 +20°C° 0 mm 1 mps 752 mmHg 50%

    Tomorrow, 24 October, Wednesday

    Time Temperature Precipitation Wind Pressure Humidity
    00:00 +20°C° 0 mm 1 mps 752 mmHg 52%
    01:00 +19°C° 0 mm 1 mps 752 mmHg 54%
    02:00 +19°C° 0 mm 1 mps 752 mmHg 57%
    03:00 +18°C° 0 mm 1 mps 751 mmHg 59%
    04:00 +18°C° 0 mm 1 mps 751 mmHg 59%
    05:00 +18°C° 0 mm 1 mps 751 mmHg 58%
    06:00 +18°C° 0 mm 1 mps 751 mmHg 58%
    07:00 +18°C° 0 mm 2 mps 750 mmHg 51%
    08:00 +20°C° 0 mm 2 mps 750 mmHg 44%
    09:00 +23°C° 0 mm 2 mps 750 mmHg 37%
    10:00 +24°C° 0 mm 2 mps 749 mmHg 34%
    11:00 +25°C° 0 mm 3 mps 749 mmHg 32%
    12:00 +26°C° 0 mm 3 mps 748 mmHg 29%
    13:00 +26°C° 0 mm 3 mps 747 mmHg 29%
    14:00 +27°C° 0 mm 3 mps 746 mmHg 28%
    15:00 +27°C° 0 mm 3 mps 746 mmHg 28%
    16:00 +26°C° 0 mm 2 mps 746 mmHg 31%
    17:00 +24°C° 0 mm 2 mps 745 mmHg 34%
    18:00 +23°C° 0 mm 1 mps 745 mmHg 37%
    19:00 +23°C° 0 mm 1 mps 745 mmHg 37%
    20:00 +23°C° 0 mm 1 mps 745 mmHg 38%
    21:00 +22°C° 0 mm 1 mps 745 mmHg 38%
    22:00 +22°C° 0 mm 1 mps 745 mmHg 39%
    23:00 +22°C° 0 mm 1 mps 745 mmHg 40%

    Day after tomorrow, 25 October, Thursday

    Time Temperature Precipitation Wind Pressure Humidity
    00:00 +20°C° 0 mm 2 mps 744 mmHg 41%
    01:00 +20°C° 0 mm 2 mps 744 mmHg 42%
    02:00 +19°C° 0 mm 2 mps 744 mmHg 43%
    03:00 +19°C° 0 mm 3 mps 744 mmHg 44%
    04:00 +19°C° 0 mm 3 mps 743 mmHg 45%
    05:00 +19°C° 0 mm 3 mps 743 mmHg 46%
    06:00 +19°C° 0 mm 3 mps 743 mmHg 46%
    07:00 +21°C° 0 mm 3 mps 743 mmHg 42%
    08:00 +24°C° 0 mm 3 mps 742 mmHg 38%
    09:00 +25°C° 0 mm 3 mps 742 mmHg 33%
    10:00 +27°C° 0 mm 3 mps 742 mmHg 31%
    11:00 +28°C° 0 mm 4 mps 741 mmHg 29%
    12:00 +29°C° 0 mm 4 mps 740 mmHg 27%
    13:00 +29°C° 0 mm 3 mps 740 mmHg 26%
    14:00 +30°C° 0 mm 3 mps 739 mmHg 26%
    15:00 +30°C° 0 mm 2 mps 738 mmHg 26%
    16:00 +28°C° 0 mm 2 mps 738 mmHg 29%
    17:00 +27°C° 0 mm 2 mps 739 mmHg 32%
    18:00 +25°C° 0 mm 2 mps 739 mmHg 35%
    19:00 +25°C° 0 mm 2 mps 739 mmHg 35%
    20:00 +24°C° 0 mm 2 mps 740 mmHg 36%
    21:00 +24°C° 0 mm 2 mps 740 mmHg 36%
    22:00 +22°C° 0 mm 3 mps 741 mmHg 39%
    23:00 +21°C° 0 mm 4 mps 741 mmHg 42%

    26 October, Friday

    Time Temperature Precipitation Wind Pressure Humidity
    00:00 +20°C° 0 mm 5 mps 742 mmHg 45%
    01:00 +19°C° 0 mm 5 mps 742 mmHg 47%
    02:00 +19°C° 0 mm 5 mps 742 mmHg 49%
    03:00 +17°C° 0 mm 6 mps 743 mmHg 51%
    04:00 +16°C° 0 mm 6 mps 743 mmHg 50%
    05:00 +16°C° 0 mm 6 mps 744 mmHg 50%
    06:00 +15°C° 0 mm 6 mps 744 mmHg 50%
    07:00 +15°C° 0.4 mm 6 mps 745 mmHg 52%
    08:00 +15°C° 0.4 mm 6 mps 745 mmHg 54%
    09:00 +15°C° 0.4 mm 6 mps 746 mmHg 55%
    10:00 +15°C° 0.2 mm 7 mps 746 mmHg 56%
    11:00 +15°C° 0.2 mm 7 mps 746 mmHg 57%
    12:00 +15°C° 0.2 mm 7 mps 747 mmHg 58%
    13:00 +14°C° 0.7 mm 7 mps 747 mmHg 59%
    14:00 +14°C° 0.7 mm 7 mps 747 mmHg 61%
    15:00 +12°C° 0.7 mm 7 mps 748 mmHg 62%
    16:00 +14°C° 1 mm 7 mps 748 mmHg 60%
    17:00 +14°C° 1 mm 6 mps 749 mmHg 59%
    18:00 +14°C° 1 mm 6 mps 750 mmHg 57%
    19:00 +14°C° 0.3 mm 6 mps 751 mmHg 56%
    20:00 +14°C° 0.3 mm 5 mps 752 mmHg 54%
    21:00 +14°C° 0.3 mm 5 mps 752 mmHg 53%
    22:00 +14°C° 0 mm 5 mps 753 mmHg 53%
    23:00 +13°C° 0 mm 5 mps 753 mmHg 54%

    27 October, Saturday

    Time Temperature Precipitation Wind Pressure Humidity
    00:00 +12°C° 0 mm 5 mps 753 mmHg 55%
    01:00 +12°C° 0 mm 5 mps 754 mmHg 54%
    02:00 +12°C° 0 mm 5 mps 754 mmHg 53%
    03:00 +11°C° 0 mm 6 mps 755 mmHg 52%
    04:00 +12°C° 0 mm 5 mps 756 mmHg 51%
    05:00 +12°C° 0 mm 5 mps 756 mmHg 50%
    06:00 +10°C° 0 mm 5 mps 757 mmHg 49%
    07:00 +13°C° 0 mm 5 mps 758 mmHg 46%
    08:00 +14°C° 0 mm 5 mps 758 mmHg 43%
    09:00 +15°C° 0 mm 6 mps 758 mmHg 41%
    10:00 +16°C° 0 mm 5 mps 758 mmHg 39%
    11:00 +17°C° 0 mm 5 mps 759 mmHg 36%
    12:00 +20°C° 0 mm 4 mps 759 mmHg 34%
    13:00 +20°C° 0 mm 4 mps 759 mmHg 34%
    14:00 +20°C° 0 mm 3 mps 759 mmHg 33%
    15:00 +20°C° 0 mm 2 mps 759 mmHg 33%
    16:00 +19°C° 0 mm 2 mps 760 mmHg 36%
    17:00 +18°C° 0 mm 2 mps 760 mmHg 39%
    18:00 +16°C° 0 mm 1 mps 761 mmHg 42%
    19:00 +16°C° 0 mm 2 mps 762 mmHg 45%
    20:00 +15°C° 0 mm 2 mps 762 mmHg 48%
    21:00 +14°C° 0 mm 3 mps 762 mmHg 51%
    22:00 +14°C° 0 mm 2 mps 762 mmHg 55%
    23:00 +14°C° 0 mm 2 mps 762 mmHg 59%

    28 October, Sunday

    Time Temperature Precipitation Wind Pressure Humidity
    00:00 +13°C° 0 mm 2 mps 762 mmHg 63%
    01:00 +13°C° 0 mm 1 mps 762 mmHg 64%
    02:00 +12°C° 0 mm 1 mps 762 mmHg 64%
    03:00 +12°C° 0 mm 1 mps 762 mmHg 65%
    04:00 +12°C° 0 mm 1 mps 762 mmHg 65%
    05:00 +12°C° 0 mm 1 mps 762 mmHg 65%
    06:00 +12°C° 0 mm 1 mps 763 mmHg 65%
    07:00 +13°C° 0 mm 1 mps 762 mmHg 61%
    08:00 +14°C° 0 mm 1 mps 762 mmHg 58%
    09:00 +15°C° 0 mm 1 mps 762 mmHg 54%
    10:00 +16°C° 0 mm 1 mps 762 mmHg 51%
    11:00 +18°C° 0 mm 1 mps 762 mmHg 49%
    12:00 +19°C° 0 mm 1 mps 761 mmHg 46%
    13:00 +20°C° 0 mm 1 mps 761 mmHg 45%
    14:00 +20°C° 0 mm 1 mps 760 mmHg 44%
    15:00 +20°C° 0 mm 1 mps 760 mmHg 43%
    16:00 +19°C° 0 mm 1 mps 760 mmHg 47%
    17:00 +18°C° 0 mm 1 mps 761 mmHg 51%
    18:00 +16°C° 0 mm 1 mps 761 mmHg 55%
    19:00 +16°C° 0 mm 1 mps 761 mmHg 56%
    20:00 +15°C° 0 mm 1 mps 761 mmHg 58%
    21:00 +15°C° 0 mm 1 mps 761 mmHg 59%
    22:00 +15°C° 0 mm 1 mps 761 mmHg 60%
    23:00 +14°C° 0 mm 1 mps 761 mmHg 61%

    29 October, Monday

    Time Temperature Precipitation Wind Pressure Humidity
    00:00 +14°C° 0 mm 1 mps 761 mmHg 62%
    01:00 +13°C° 0 mm 1 mps 761 mmHg 63%
    02:00 +13°C° 0 mm 1 mps 761 mmHg 63%
    03:00 +13°C° 0 mm 1 mps 760 mmHg 64%
    04:00 +13°C° 0 mm 1 mps 760 mmHg 65%
    05:00 +12°C° 0 mm 0 mps 761 mmHg 66%
    06:00 +11°C° 0 mm 0 mps 761 mmHg 66%
    07:00 +14°C° 0 mm 1 mps 761 mmHg 62%
    08:00 +15°C° 0 mm 1 mps 761 mmHg 57%
    09:00 +18°C° 0 mm 1 mps 761 mmHg 52%
    10:00 +19°C° 0 mm 1 mps 760 mmHg 49%
    11:00 +20°C° 0 mm 1 mps 760 mmHg 45%
    12:00 +20°C° 0 mm 2 mps 759 mmHg 42%
    13:00 +21°C° 0 mm 2 mps 759 mmHg 41%
    14:00 +21°C° 0 mm 2 mps 759 mmHg 40%
    15:00 +23°C° 0 mm 1 mps 758 mmHg 39%
    16:00 +21°C° 0 mm 1 mps 759 mmHg 43%
    17:00 +20°C° 0 mm 1 mps 759 mmHg 48%
    18:00 +19°C° 0 mm 1 mps 759 mmHg 52%
    19:00 +18°C° 0 mm 1 mps 759 mmHg 53%
    20:00 +17°C° 0 mm 2 mps 759 mmHg 55%
    21:00 +16°C° 0 mm 2 mps 760 mmHg 56%
    22:00 +16°C° 0 mm 2 mps 759 mmHg 57%
    23:00 +15°C° 0 mm 1 mps 759 mmHg 58%
    Show more